Вернуться в каталог

STARLINK-34432

АктивенСвязьVLEO
NORAD 64426·PAYLOAD·🇺🇸 United States

Запущен Jun 17, 2025 с Vandenberg Space Force Base

Loading…

Ближайшие Пролёты (ближайшие 24 часа)

TLE

СвежийSource: CelesTrak SupGP

Эпоха: Sep 14, 2026, 22:48 UTC

1 64426C 25129Q   26257.95048611  .00047590  00000+0  16561-2 0  2579
2 64426  69.9989 315.7543 0003491 267.5016 121.7656 15.29541624    14

Отслеживайте STARLINK-34432 в реальном времени с AllMySat

Download on the App Store